[[{"header":{"parameterUnit":"m.s-1","parameterCategory":1,"la1":30.2991,"la2":30.254,"lo1":-89.0895,"lo2":-89.0444,"dy":0.0017,"dx":0.0017,"nx":28,"ny":28,"refTime":"2023-07-19T09:00:00:Z","depth":0,"parameterNumber":2,"parameterNumberName":"U-component_of_WINDS"},"data":[0,0,0,0,0,0,0,0,0,0,0,0,0,0,0,0,0,0,0,0,0,0,0,0,0,0,0,0,0,0,0,0,0,0,0,0,0,0,0,0,0,0,0,0,0,0,0,0,0,0,0,0,0,0,0,0,0,0,0.2236,0.2236,0,0.227,0.227,0.2271,0.228,0.228,0.228,0.228,0.2313,0.2314,0.2316,0,0,0,0,0,0,0,0,0,0,0,0,0,0.2178,0.2179,0.2236,0.2236,0.2237,0.227,0.227,0.2271,0.228,0.228,0.228,0.228,0.2313,0.2314,0.2316,0,0,0,0,0,0,0,0,0,0,0,0,0,0.2207,0.2179,0.2236,0.2246,0.2247,0.227,0.227,0.2271,0.228,0.228,0.228,0.228,0.2313,0.2314,0.2316,0.2331,0,0,0.2321,0.2321,0,0,0,0,0,0,0,0,0.2205,0.2209,0.2244,0.2245,0.2246,0.2271,0.2262,0.2291,0.228,0.2268,0.228,0.2279,0.2299,0.2302,0.2309,0.2333,0.2334,0.2321,0.2322,0.2322,0.2323,0,0,0,0,0,0,0,0.2203,0.2207,0.2249,0.2244,0.2246,0.2248,0.2251,0.2268,0.2284,0.2269,0.2269,0.2273,0.23,0.2307,0.231,0.2335,0.2321,0.2322,0.2323,0.2324,0.2371,0.2372,0,0,0,0,0,0,0.22,0.2206,0.2248,0.225,0.2225,0.2249,0.2253,0.2263,0.2284,0.2287,0.2274,0.2274,0.2305,0.2308,0.2311,0.233,0.2322,0.2324,0.2325,0.2371,0.2371,0.2372,0,0,0,0,0,0,0.2198,0.2203,0.2247,0.2228,0.2234,0.225,0.2261,0.2264,0.2271,0.2288,0.2291,0.2278,0.2305,0.2309,0.2326,0.2331,0.2325,0.2326,0.2371,0.2371,0.2372,0.2367,0,0,0,0,0,0,0.2197,0.2203,0.2209,0.2228,0.2235,0.2262,0.2262,0.2265,0.2274,0.2275,0.2293,0.2296,0.2305,0.2323,0.2327,0.2333,0.2327,0.237,0.2371,0.2371,0.2367,0.2367,0.2368,0,0,0,0,0,0.2194,0.2207,0.2209,0.2215,0.2243,0.2262,0.2266,0.2276,0.2274,0.2281,0.2291,0.2295,0.233,0.2325,0.233,0.2336,0.237,0.2371,0.2371,0.2367,0.2367,0.2368,0,0,0,0,0,0,0.2187,0.2209,0.2213,0.2232,0.2245,0.2264,0.2272,0.2276,0.229,0.229,0.2301,0.2306,0.2322,0.233,0.2325,0.2351,0.235,0.2351,0.2345,0.2346,0.2346,0.2343,0.2329,0,0,0,0,0,0.2188,0.2202,0.222,0.2235,0.2241,0.2255,0.2264,0.227,0.2285,0.229,0.2302,0.2315,0.2329,0.2338,0.2351,0.2368,0.2372,0.2375,0.2375,0.2375,0.2377,0.2385,0.2387,0.2374,0.2374,0.2374,0,0,0.219,0.2203,0.2211,0.2234,0.2245,0.2258,0.226,0.2274,0.2284,0.2292,0.2309,0.2318,0.2333,0.235,0.2358,0.2358,0.2381,0.2376,0.2376,0.2377,0.2386,0.2387,0.2388,0.2374,0.2374,0.2374,0,0,0.2199,0.2211,0.2224,0.2235,0.2252,0.2261,0.2264,0.2282,0.2289,0.2306,0.2312,0.2323,0.2347,0.2357,0.2366,0.2378,0.2382,0.2382,0.2385,0.2393,0.2394,0.2395,0.2399,0.24,0.2383,0.2383,0.2383,0,0.2199,0.222,0.2231,0.2244,0.2254,0.2262,0.2275,0.2285,0.2305,0.2311,0.231,0.2339,0.235,0.2369,0.2372,0.2379,0.2382,0.238,0.2393,0.2394,0.2395,0.2399,0.24,0.2383,0.2383,0.2383,0.2383,0,0.2218,0.2232,0.2241,0.226,0.2271,0.2284,0.2296,0.2305,0.231,0.2319,0.2336,0.2349,0.2365,0.237,0.2376,0.239,0.2389,0.2391,0.239,0.2396,0.24,0.2401,0.2383,0.2383,0.2383,0.2383,0,0,0.2224,0.2249,0.2252,0.2261,0.2279,0.229,0.2303,0.2319,0.2326,0.234,0.2351,0.237,0.2371,0.2381,0.2387,0.2395,0.2403,0.2395,0.2396,0.2396,0.2418,0.2417,0.2418,0.2406,0.2406,0.2406,0.2417,0,0.2236,0.226,0.227,0.229,0.2303,0.231,0.2321,0.2334,0.2342,0.2354,0.2363,0.2376,0.2377,0.2383,0.239,0.24,0.2408,0.24,0.2415,0.2416,0.2411,0.2421,0.2419,0.2429,0.2418,0.2419,0.2419,0,0.2253,0.2266,0.2287,0.2303,0.2309,0.2319,0.2334,0.2345,0.2359,0.2365,0.2375,0.2381,0.2394,0.2392,0.2411,0.2405,0.2412,0.2418,0.2418,0.242,0.2418,0.2422,0.2432,0.2433,0.2421,0.2421,0.2421,0,0.2254,0.2278,0.2293,0.23,0.232,0.2327,0.2335,0.2349,0.2357,0.237,0.2376,0.239,0.2397,0.2408,0.2417,0.2415,0.2434,0.2434,0.2439,0.2439,0.2443,0.2442,0.2454,0.2448,0.2448,0.2448,0.2448,0,0.2266,0.2278,0.2294,0.2304,0.2317,0.2328,0.2341,0.235,0.2362,0.2373,0.238,0.2389,0.2402,0.2413,0.242,0.2434,0.2437,0.2442,0.2444,0.2441,0.244,0.2446,0.2445,0.2448,0.2448,0.2448,0.2448,0,0.227,0.2282,0.2299,0.2316,0.232,0.233,0.2344,0.2353,0.2361,0.2375,0.2379,0.2392,0.2405,0.2416,0.2433,0.2438,0.2453,0.2455,0.2448,0.2449,0.2454,0.2453,0.2468,0.2471,0.2463,0.2463,0.2464,0,0.2277,0.2287,0.2305,0.2312,0.2321,0.2333,0.2342,0.2353,0.2361,0.2377,0.2384,0.2398,0.241,0.2431,0.2442,0.2455,0.2457,0.2462,0.2459,0.2456,0.2457,0.2456,0.2457,0.2462,0.2462,0.2462,0.2462,0,0.2287,0.2292,0.2305,0.2319,0.2329,0.2341,0.2353,0.2359,0.2371,0.238,0.2394,0.2403,0.2421,0.2435,0.2449,0.2457,0.2461,0.2463,0.2465,0.2462,0.2458,0.246,0.2448,0.2462,0.2462,0.2462,0.2462,0.2462,0.2292,0.2301,0.2315,0.2329,0.2338,0.2349,0.2358,0.2368,0.238,0.2395,0.2401,0.2415,0.2427,0.2447,0.2455,0.2466,0.2466,0.2469,0.247,0.247,0.2469,0.2456,0.2468,0.2468,0.2468,0.2468,0.2468,0,0.2302,0.2312,0.2324,0.234,0.2351,0.2354,0.2367,0.2376,0.2388,0.24,0.2411,0.2426,0.2439,0.2451,0.2465,0.2471,0.2473,0.2474,0.2474,0.2475,0.2469,0.2466,0.2472,0.2472,0.2472,0.2472,0.2472,0.2472,0.2309,0.2324,0.233,0.2349,0.2358,0.2372,0.2379,0.2389,0.2398,0.2415,0.2426,0.2434,0.2445,0.2459,0.2471,0.2474,0.2479,0.2479,0.2482,0.2476,0.2476,0.2475,0.2472,0.248,0.248,0.2488,0.2488,0.2488]},{"header":{"parameterUnit":"m.s-1","parameterCategory":1,"la1":30.2991,"la2":30.254,"lo1":-89.0895,"lo2":-89.0444,"dy":0.0017,"dx":0.0017,"nx":28,"ny":28,"refTime":"2023-07-19T09:00:00:Z","depth":0,"parameterNumber":3,"parameterNumberName":"V-component_of_WINDS"},"data":[0,0,0,0,0,0,0,0,0,0,0,0,0,0,0,0,0,0,0,0,0,0,0,0,0,0,0,0,0,0,0,0,0,0,0,0,0,0,0,0,0,0,0,0,0,0,0,0,0,0,0,0,0,0,0,0,0,0,4.8815,4.8815,0,4.88,4.88,4.88,4.8708,4.8706,4.8704,4.8701,4.8687,4.8688,4.869,0,0,0,0,0,0,0,0,0,0,0,0,0,4.8765,4.8766,4.8815,4.8815,4.8815,4.88,4.88,4.88,4.8708,4.8706,4.8703,4.87,4.8686,4.8688,4.869,0,0,0,0,0,0,0,0,0,0,0,0,0,4.8772,4.8766,4.8815,4.8767,4.8763,4.88,4.88,4.88,4.8709,4.8706,4.8702,4.8699,4.8686,4.8688,4.8691,4.8773,0,0,4.8698,4.8699,0,0,0,0,0,0,0,0,4.8772,4.8774,4.8775,4.8771,4.8766,4.8752,4.8777,4.8791,4.871,4.8729,4.8701,4.8697,4.8711,4.8712,4.8716,4.8772,4.8771,4.8698,4.87,4.8701,4.8702,0,0,0,0,0,0,0,4.8771,4.8774,4.8809,4.8775,4.8769,4.8747,4.8744,4.8779,4.8739,4.8727,4.8721,4.872,4.8708,4.8714,4.8715,4.8771,4.8698,4.8701,4.8702,4.8703,4.8892,4.8896,0,0,0,0,0,0,4.8777,4.8774,4.881,4.8809,4.8761,4.875,4.8747,4.876,4.8739,4.8732,4.8723,4.8716,4.8711,4.8712,4.8714,4.8808,4.8701,4.8703,4.8705,4.8889,4.8893,4.8897,0,0,0,0,0,0,4.8777,4.8781,4.881,4.879,4.8791,4.8755,4.877,4.8762,4.8767,4.8735,4.8728,4.8736,4.8709,4.8711,4.8758,4.8806,4.8705,4.8707,4.8885,4.889,4.8895,4.8997,0,0,0,0,0,0,4.8776,4.8782,4.8813,4.8791,4.8793,4.8855,4.8773,4.8764,4.8771,4.8762,4.8745,4.874,4.8706,4.8755,4.8761,4.8808,4.8709,4.888,4.8887,4.8893,4.8989,4.9005,4.9019,0,0,0,0,0,4.8774,4.8842,4.8815,4.8819,4.8831,4.8858,4.8859,4.8819,4.8776,4.8806,4.8786,4.874,4.88,4.8761,4.8767,4.8815,4.8877,4.8885,4.8893,4.8982,4.9002,4.9018,0,0,0,0,0,0,4.8871,4.8839,4.8808,4.8871,4.8868,4.8842,4.888,4.8841,4.8851,4.8841,4.8792,4.8789,4.8844,4.8834,4.8791,4.8893,4.8831,4.884,4.8897,4.8915,4.8929,4.893,4.8711,0,0,0,0,0,4.89,4.8925,4.8895,4.8954,4.8954,4.8917,4.8928,4.8897,4.8892,4.889,4.8873,4.887,4.8888,4.8901,4.8916,4.8987,4.8982,4.9023,4.9038,4.905,4.9059,4.9095,4.9113,4.8923,4.8923,4.8923,0,0,4.896,4.8945,4.8964,4.8973,4.8967,4.8993,4.8917,4.8948,4.8967,4.8895,4.8939,4.8926,4.892,4.8979,4.9005,4.8973,4.911,4.906,4.907,4.9072,4.9105,4.9123,4.9139,4.8928,4.8927,4.8926,0,0,4.9081,4.9073,4.9121,4.9116,4.9107,4.9083,4.9094,4.9075,4.9063,4.9106,4.9052,4.9074,4.9107,4.9104,4.9107,4.9227,4.9185,4.9233,4.931,4.9346,4.9361,4.9374,4.9416,4.9431,4.9242,4.9242,4.9242,0,4.9157,4.9194,4.915,4.9184,4.919,4.9125,4.9172,4.917,4.9168,4.9173,4.9137,4.9175,4.9167,4.9224,4.9253,4.9258,4.9269,4.9235,4.9362,4.9375,4.9386,4.9426,4.9442,4.9248,4.9247,4.9247,4.9246,0,4.9287,4.9313,4.9353,4.9351,4.936,4.9402,4.9363,4.9378,4.9347,4.9326,4.937,4.9357,4.9368,4.9379,4.9349,4.9433,4.9413,4.9371,4.9307,4.9411,4.9447,4.9462,4.9256,4.9254,4.9253,4.9251,0,0,4.947,4.9442,4.9457,4.9455,4.944,4.946,4.9498,4.9508,4.9521,4.9522,4.9552,4.958,4.9541,4.9544,4.9513,4.9545,4.9639,4.9498,4.9497,4.9524,4.9729,4.9761,4.9779,4.9612,4.9614,4.9617,4.973,0,4.9585,4.9648,4.9609,4.9677,4.9701,4.9639,4.9672,4.9667,4.9648,4.9666,4.9645,4.9666,4.9613,4.9614,4.9642,4.9622,4.968,4.9613,4.9639,4.964,4.9642,4.9798,4.9832,4.9939,4.9744,4.9746,4.9748,0,4.9729,4.9735,4.9805,4.9785,4.9794,4.9824,4.9829,4.9847,4.9839,4.9823,4.9827,4.9788,4.9823,4.9762,4.981,4.9765,4.9773,4.9765,4.9768,4.9768,4.97,4.9802,4.9972,4.9988,4.977,4.9768,4.9767,0,4.9854,4.9879,4.9924,4.9925,4.9903,4.9925,4.9917,4.9906,4.9914,4.9919,4.9924,4.9934,4.9939,4.9947,4.9911,4.987,4.9964,4.9899,4.9951,4.9953,4.9973,4.9973,5.0147,4.9981,4.998,4.998,4.998,0,4.9987,5.0033,4.998,5.0008,5.0057,5.0011,5.0061,5.0046,5.0037,5.0061,5.0009,5.0033,4.9985,5.0004,4.9976,5.002,5.0023,5.0011,5.0003,5.0015,5.0016,5.0019,5.001,4.9984,4.9983,4.9982,4.9982,0,5.0135,5.0101,5.0146,5.0121,5.0116,5.0153,5.0132,5.0157,5.0134,5.0165,5.017,5.0135,5.0154,5.012,5.0135,5.0116,5.0177,5.0158,5.0179,5.0173,5.0227,5.0222,5.0409,5.0431,5.0251,5.0253,5.0255,0,5.0221,5.0255,5.0233,5.0245,5.024,5.026,5.0267,5.0224,5.0234,5.0228,5.0253,5.0268,5.0277,5.0311,5.0287,5.0299,5.0279,5.0343,5.028,5.0291,5.0279,5.0277,5.028,5.0356,5.0358,5.036,5.0362,0,5.0379,5.036,5.0373,5.038,5.039,5.0394,5.0394,5.0407,5.0361,5.0375,5.0394,5.0401,5.0416,5.0431,5.0437,5.0428,5.0388,5.0382,5.0394,5.0407,5.0417,5.0412,5.0214,5.0378,5.0376,5.0375,5.0374,5.0373,5.0497,5.0524,5.0512,5.0528,5.0523,5.0524,5.0546,5.0526,5.054,5.0549,5.0522,5.0547,5.0538,5.0541,5.0537,5.0556,5.0527,5.0546,5.055,5.0555,5.0564,5.0415,5.0557,5.0557,5.0556,5.0556,5.0555,0,5.0651,5.064,5.0655,5.0656,5.0669,5.0629,5.0626,5.064,5.0662,5.0657,5.0667,5.0688,5.0702,5.068,5.069,5.071,5.0691,5.0714,5.0712,5.071,5.0589,5.0577,5.0729,5.0729,5.0729,5.0729,5.0728,5.0728,5.0732,5.0774,5.0754,5.0793,5.0782,5.0805,5.0807,5.0808,5.0804,5.0829,5.0841,5.0826,5.0814,5.0823,5.0834,5.0827,5.0833,5.0862,5.0849,5.0736,5.0719,5.0703,5.0691,5.0864,5.0864,5.0968,5.0969,5.097]}]]